Storm Lake, IA

7:28 PM CDT on June 25, 2017 (GMT -0500)
Storm Lake Municipal

Weather History for KSLB - July, 2014

Change the Weather History Date:

Thursday, July 24, 2014

  Actual Average Record
Temperature  
Mean Temperature 65 °F -  
Max Temperature 73 °F 80 °F 95 °F (2012)
Min Temperature 57 °F 63 °F 55 °F (2003)
Growing Degree Days 15 (Base 50)    
Moisture  
Dew Point 62 °F    
Average Humidity 88    
Maximum Humidity 100    
Minimum Humidity 61    
Precipitation  
Precipitation 0.05 in - - ()
Sea Level Pressure  
Sea Level Pressure 30.08 in    
Wind  
Wind Speed 7 mph (SSE)    
Max Wind Speed 24 mph    
Max Gust Speed 33 mph    
Visibility 10 miles    
Events Rain    
Averages and records for this station are not official NWS values.
T = Trace of Precipitation, MM = Missing Value Source: NWS Daily Summary

Daily Weather History Graph

Daily Weather History Graph

Search for Another Location

Airport or City:

Trip Planner

Search our weather history database for the weather conditions in past years. The results will help you decide how hot, cold, wet, or windy it might be!

Date:

Astronomy

Jul. 24, 2014 Rise Set
Actual Time 6:04 AM CDT 8:49 PM CDT
Civil Twilight 5:32 AM CDT 9:22 PM CDT
Nautical Twilight 4:50 AM CDT 10:03 PM CDT
Astronomical Twilight 4:03 AM CDT 10:50 PM CDT
Moon 4:14 AM CDT (7/24) 7:04 PM CDT (7/24)
Length of Visible Light 15h 50m
Length of Day
14h 44m
Waning Crescent, 5% of the Moon is Illuminated
Jul 24
Waning Crescent
Jul 26
New
Aug 3
First Quarter
Aug 10
Full
Aug 17
Last Quarter

Hourly Weather History & Observations

Time (CDT) Temp. Dew Point Humidity Pressure Visibility Wind Dir Wind Speed Gust Speed Precip Events Conditions
12:15 AM 62.6 °F 60.8 °F 94% 30.19 in 10.0 mi Calm Calm - N/A   Clear
12:35 AM 62.6 °F 60.8 °F 94% 30.20 in 10.0 mi Calm Calm - N/A   Clear
12:55 AM 62.6 °F 60.8 °F 94% 30.20 in 10.0 mi Calm Calm - N/A   Clear
1:15 AM 64.4 °F 60.8 °F 88% 30.20 in 10.0 mi SE 3.5 mph - N/A   Clear
1:35 AM 62.6 °F 60.8 °F 94% 30.19 in 10.0 mi ESE 3.5 mph - N/A   Clear
1:55 AM 62.6 °F 60.8 °F 94% 30.19 in 10.0 mi ESE 3.5 mph - N/A   Clear
2:15 AM 62.6 °F 60.8 °F 94% 30.19 in 10.0 mi SE 3.5 mph - N/A   Clear
2:35 AM 60.8 °F 60.8 °F 100% 30.19 in 10.0 mi ESE 4.6 mph - N/A   Clear
2:55 AM 62.6 °F 59.0 °F 88% 30.18 in 10.0 mi SE 3.5 mph - N/A   Clear
3:15 AM 62.6 °F 59.0 °F 88% 30.18 in 10.0 mi Calm Calm - N/A   Clear
3:35 AM 60.8 °F 59.0 °F 94% 30.17 in 10.0 mi SE 3.5 mph - N/A   Clear
3:55 AM 60.8 °F 59.0 °F 94% 30.17 in 10.0 mi SE 3.5 mph - N/A   Clear
4:15 AM 60.8 °F 59.0 °F 94% 30.17 in 10.0 mi SE 4.6 mph - N/A   Clear
4:35 AM 60.8 °F 59.0 °F 94% 30.17 in 10.0 mi SE 4.6 mph - N/A   Clear
4:55 AM 60.8 °F 59.0 °F 94% 30.17 in 10.0 mi SE 4.6 mph - N/A   Clear
5:20 AM 59.0 °F 59.0 °F 100% 30.16 in 10.0 mi SE 4.6 mph - N/A   Clear
5:35 AM 60.8 °F 60.8 °F 100% 30.16 in 10.0 mi SE 5.8 mph - N/A   Clear
5:55 AM 59.0 °F 59.0 °F 100% 30.16 in 10.0 mi SSE 4.6 mph - N/A   Clear
6:15 AM 59.0 °F 59.0 °F 100% 30.16 in 9.0 mi SE 4.6 mph - N/A   Clear
6:35 AM 57.2 °F 57.2 °F 100% 30.15 in 9.0 mi SE 5.8 mph - N/A   Clear
6:55 AM 59.0 °F 59.0 °F 100% 30.14 in 10.0 mi SE 5.8 mph - N/A   Clear
7:15 AM 60.8 °F 60.8 °F 100% 30.15 in 9.0 mi Calm Calm - N/A   Clear
7:35 AM 64.4 °F 62.6 °F 94% 30.16 in 10.0 mi SSE 3.5 mph - N/A   Clear
7:55 AM 66.2 °F 62.6 °F 88% 30.15 in 10.0 mi SSE 6.9 mph - N/A   Clear
8:15 AM 66.2 °F 62.6 °F 88% 30.16 in 10.0 mi South 4.6 mph - N/A   Clear
8:35 AM 66.2 °F 62.6 °F 88% 30.16 in 10.0 mi South 5.8 mph - N/A   Clear
9:55 AM 68.0 °F 62.6 °F 83% 30.23 in 10.0 mi West 5.8 mph 12.7 mph N/A   Clear
10:15 AM 66.2 °F 62.6 °F 88% 30.20 in 10.0 mi SSW 4.6 mph - N/A   Scattered Clouds
10:35 AM 66.2 °F 64.4 °F 94% 30.13 in 10.0 mi South 11.5 mph - N/A   Partly Cloudy
10:55 AM 66.2 °F 64.4 °F 94% 30.05 in 10.0 mi SE 16.1 mph 23.0 mph N/A   Clear
11:15 AM 69.8 °F 62.6 °F 78% 30.04 in 10.0 mi SE 17.3 mph 26.5 mph N/A   Clear
11:35 AM 73.4 °F 64.4 °F 73% 30.09 in 10.0 mi South 15.0 mph 20.7 mph N/A   Clear
11:55 AM 73.4 °F 62.6 °F 69% 30.11 in 10.0 mi South 11.5 mph - N/A   Clear
12:15 PM 73.4 °F 60.8 °F 65% 30.12 in 10.0 mi South 8.1 mph 20.7 mph N/A   Clear
12:35 PM 73.4 °F 59.0 °F 61% 30.14 in 10.0 mi South 10.4 mph 17.3 mph N/A   Clear
12:55 PM 69.8 °F 59.0 °F 68% 30.09 in 10.0 mi SSE 15.0 mph - N/A   Clear
1:15 PM 69.8 °F 59.0 °F 68% 30.11 in 10.0 mi South 6.9 mph 13.8 mph N/A   Clear
1:35 PM 68.0 °F 60.8 °F 78% 30.14 in 10.0 mi Calm Calm - N/A   Clear
1:55 PM 66.2 °F 62.6 °F 88% 30.16 in 9.0 mi WNW 3.5 mph - N/A Rain Light Rain
2:15 PM 66.2 °F 64.4 °F 94% 30.14 in 7.0 mi South 4.6 mph - N/A Rain Light Rain
2:35 PM 64.4 °F 62.6 °F 94% 30.07 in 7.0 mi SSE 13.8 mph - N/A Rain Light Rain
2:55 PM 64.4 °F 62.6 °F 94% 29.97 in 7.0 mi South 21.9 mph 33.4 mph 0.03 in   Clear
3:15 PM 66.2 °F 62.6 °F 88% 29.98 in 10.0 mi SSE 18.4 mph 28.8 mph N/A   Clear
3:35 PM 68.0 °F 64.4 °F 88% 29.98 in 10.0 mi South 21.9 mph - N/A   Clear
3:55 PM 68.0 °F 64.4 °F 88% 30.02 in 10.0 mi SSE 16.1 mph - N/A   Clear
4:15 PM 68.0 °F 62.6 °F 83% 30.11 in 10.0 mi NE 8.1 mph - N/A   Mostly Cloudy
4:35 PM 69.8 °F 64.4 °F 83% 30.06 in 10.0 mi ESE 10.4 mph - N/A   Scattered Clouds
4:55 PM 69.8 °F 64.4 °F 83% 30.04 in 10.0 mi SE 12.7 mph 18.4 mph N/A   Clear
5:15 PM 69.8 °F 64.4 °F 83% 30.07 in 10.0 mi ESE 9.2 mph - N/A   Clear
5:35 PM 68.0 °F 64.4 °F 88% 30.16 in 10.0 mi NE 21.9 mph 29.9 mph N/A   Mostly Cloudy
5:55 PM 64.4 °F 64.4 °F 100% 30.10 in 7.0 mi East 13.8 mph - 0.01 in Rain Light Rain
6:15 PM 64.4 °F 64.4 °F 100% 30.08 in 10.0 mi ESE 10.4 mph - N/A   Clear
6:35 PM 64.4 °F 64.4 °F 100% 29.96 in 10.0 mi SE 20.7 mph 27.6 mph N/A   Clear
6:55 PM 66.2 °F 64.4 °F 94% 29.94 in 10.0 mi SSE 23.0 mph 32.2 mph 0.01 in   Clear
7:15 PM 68.0 °F 62.6 °F 83% 29.92 in 10.0 mi South 24.2 mph 33.4 mph N/A   Clear
7:35 PM 68.0 °F 62.6 °F 83% 29.93 in 10.0 mi South 17.3 mph 27.6 mph N/A   Clear
7:55 PM 68.0 °F 62.6 °F 83% 29.90 in 10.0 mi SSE 19.6 mph 26.5 mph N/A   Clear
8:15 PM 68.0 °F 62.6 °F 83% 29.90 in 10.0 mi South 18.4 mph 28.8 mph N/A   Clear
8:35 PM 68.0 °F 62.6 °F 83% 29.90 in 10.0 mi South 13.8 mph 20.7 mph N/A   Clear
8:55 PM 68.0 °F 62.6 °F 83% 29.88 in 10.0 mi South 13.8 mph 21.9 mph N/A   Clear
9:15 PM 66.2 °F 62.6 °F 88% 29.89 in 10.0 mi South 11.5 mph - N/A   Clear
9:35 PM 66.2 °F 62.6 °F 88% 29.91 in 10.0 mi South 8.1 mph 17.3 mph N/A   Clear
9:55 PM 66.2 °F 62.6 °F 88% 29.91 in 10.0 mi SSW 12.7 mph - N/A   Clear
10:15 PM 66.2 °F 62.6 °F 88% 29.90 in 10.0 mi South 13.8 mph - N/A   Clear
10:35 PM 68.0 °F 62.6 °F 83% 29.90 in 10.0 mi South 10.4 mph 19.6 mph N/A   Clear
10:55 PM 68.0 °F 62.6 °F 83% 29.90 in 10.0 mi South 13.8 mph - N/A   Clear
11:15 PM 66.2 °F 62.6 °F 88% 29.90 in 10.0 mi South 10.4 mph 17.3 mph N/A   Clear
11:35 PM 66.2 °F 62.6 °F 88% 29.90 in 10.0 mi South 9.2 mph - N/A   Clear
11:55 PM 66.2 °F 62.6 °F 88% 29.90 in 10.0 mi South 12.7 mph - N/A   Mostly Cloudy